Погода в Мойке

Россия / Новгородская область     58°37′29″N   30°38′00″E
темп.,
°C
ветер,
м/с
пор.,
м/с
влажн.,
%
обл.,
%
осадки,
мм/ч
давл.,
гПа
погр.,
м
18 мая, вт
вт1800:00+14юв0197100 2.4 100541
03:00+14в3899100 2.6 1004181
06:00+15юв31199100 0.0 1003333
09:00+18юв389470 0.0 1004460
12:00+22ююв4673100 0.1 10041063
15:00+21ююв3682100 3.1 1003446
18:00+21юв2885100 1.2 1002515
21:00+16ю119699 5.3 100312
19 мая, ср
ср1900:00+14вюв2697100 0.1 1003121
03:00+14в289712 0.1 1002175
06:00+15юв5149724 0.4 1002536
09:00+18ююв5108453 0.4 1002801
12:00+21ююв696491 0.5 10021484
15:00+21ю597352 2.2 10031367
18:00+18ююз388725 1.8 1003702
21:00+15юз2696100 2.9 1004225
20 мая, чт
чт2000:00+12з389813 0.0 1005312
03:00+10з2598100 0.0 1007185
06:00+10зсз369597 0.0 1008368
09:00+12сз2482100 0.0 1009615
12:00+16ссз4561100 0.0 10081074
15:00+17с5657100 0.0 10071338
18:00+12ссз51192100 4.5 1005817
21:00+10ссз61495100 13.1 1005783
21 мая, пт
пт2100:00+9ссз51297100 0.3 1005785
03:00+9сз51196100 0.4 1004740
06:00+9сз51197100 7.3 1004739
09:00+9зсз4997100 13.9 1007437
12:00+8з3991100 0.0 1009405
15:00+17з57415 0.0 10091849
18:00+17зюз375059 0.0 10102443
21:00+10зюз378285 0.3 1013233
22 мая, сб
сб2200:00+7юз399166 0.0 1014203
03:00+5юз28939 0.0 1015169
06:00+6юз28875 0.0 1016248
09:00+11юз3560100 0.0 1017729
12:00+14ююз3547100 0.0 10171356
15:00+16юз3543100 0.0 10171653
18:00+15ю3455100 0.0 10161149
21:00+11ююв26784 0.0 1016108